Starlink 1566

operational
NORAD ID: 46079 Int'l Des: 2020-055 Owner: SPXS Country: US Constellation: starlink
LEOCIRCULARSTARLINK_TYPE

关于 Starlink 1566

正在加载描述...

实时位置

正在加载3D地球...

即将过境

高度历史

Altitude vs Time

uPlot chart will show altitude changes over time

两行轨道根数

1 46079U 20055BE 26036.28803816 -.00002288 00000-0 -13477-3 0 9998
2 46079 53.0559 242.0728 0001268 84.7963 275.3171 15.06405055304424
Epoch: Feb 5, 2026 • Age: 11 hours

当前状态

高度 547.1 km
速度 7.59 km/s
星下点 16.40°N, 155.47°W
发射日期 Aug 7, 2020
运行时间 5.4 years
类型 internet

技术详情

分类 Payload
质量 260.00 kg
干质量 248.00 kg
总质量 260.00 kg
长度 0.20 m
直径 2.80 m
跨度 9.00 m
形状 Box + pan
制造商 SPXS
平台类型 Starlink
阶段状态 In Orbit
所有者/国家 SPXS/US

大型星座

Loading constellations...